Whitefield, NH

10:39 PM EST on January 20, 2017 (GMT -0500)
Mount Washington Regional

Weather History for KHIE - June, 2013

Change the Weather History Date:

Sunday, June 23, 2013

  Actual Average Record
Temperature  
Mean Temperature 72 °F -  
Max Temperature 82 °F 76 °F 84 °F (1999)
Min Temperature 62 °F 46 °F 35 °F (2005)
Cooling Degree Days 6    
Growing Degree Days 22 (Base 50)    
Moisture  
Dew Point 64 °F    
Average Humidity 86    
Maximum Humidity 94    
Minimum Humidity 65    
Precipitation  
Precipitation 1.21 in - - ()
Sea Level Pressure  
Sea Level Pressure 30.07 in    
Wind  
Wind Speed 1 mph (SW)    
Max Wind Speed 8 mph    
Max Gust Speed 17 mph    
Visibility 5 miles    
Events Fog , Rain , Thunderstorm    
Averages and records for this station are not official NWS values.
T = Trace of Precipitation, MM = Missing Value Source: NWS Daily Summary

Daily Weather History Graph

Daily Weather History Graph

Search for Another Location

Airport or City:

Trip Planner

Search our weather history database for the weather conditions in past years. The results will help you decide how hot, cold, wet, or windy it might be!

Date:

Astronomy

Jun. 23, 2013 Rise Set
Actual Time 5:02 AM EDT 8:34 PM EDT
Civil Twilight 4:25 AM EDT 9:11 PM EDT
Nautical Twilight 3:37 AM EDT 9:59 PM EDT
Astronomical Twilight 2:34 AM EDT 11:02 PM EDT
Moon 8:40 PM EDT (6/23) 5:19 AM EDT (6/23)
Length of Visible Light 16h 45m
Length of Day
15h 31m
Full, 100% of the Moon is Illuminated
Jun 23
Full
Jun 30
Last Quarter
Jul 8
New
Jul 15
First Quarter
Jul 22
Full

Hourly Weather History & Observations

Time (EDT) Temp. Heat Index Dew Point Humidity Pressure Visibility Wind Dir Wind Speed Gust Speed Precip Events Conditions
12:52 AM 64.0 °F - 61.0 °F 90% 30.14 in 5.0 mi Calm Calm - 0.02 in   Overcast
1:52 AM 63.0 °F - 61.0 °F 93% 30.12 in 4.0 mi NW 3.5 mph - 0.01 in   Overcast
2:52 AM 64.0 °F - 61.0 °F 90% 30.12 in 4.0 mi Calm Calm - N/A   Overcast
3:33 AM 62.6 °F - 60.8 °F 94% 30.11 in 2.5 mi Calm Calm - N/A   Overcast
3:52 AM 63.0 °F - 61.0 °F 93% 30.10 in 3.0 mi Calm Calm - N/A   Overcast
4:01 AM 62.6 °F - 60.8 °F 94% 30.10 in 1.8 mi Calm Calm - 0.01 in   Overcast
4:15 AM 62.6 °F - 60.8 °F 94% 30.12 in 2.0 mi NW 5.8 mph - 0.04 in Rain Light Rain
4:41 AM 62.6 °F - 60.8 °F 94% 30.10 in 3.0 mi Calm Calm - 0.08 in Rain Light Rain
4:52 AM 63.0 °F - 61.0 °F 93% 30.10 in 4.0 mi Calm Calm - 0.08 in   Overcast
5:11 AM 62.6 °F - 60.8 °F 94% 30.11 in 2.5 mi West 3.5 mph - N/A   Overcast
5:19 AM 62.6 °F - 60.8 °F 94% 30.11 in 3.0 mi Calm Calm - N/A   Overcast
5:26 AM 62.6 °F - 60.8 °F 94% 30.11 in 2.0 mi Calm Calm - N/A   Overcast
5:31 AM 62.6 °F - 60.8 °F 94% 30.11 in 2.0 mi Calm Calm - N/A   Overcast
5:47 AM 62.6 °F - 60.8 °F 94% 30.11 in 1.8 mi Calm Calm - 0.01 in Rain Light Rain
5:52 AM 63.0 °F - 61.0 °F 93% 30.11 in 2.5 mi Calm Calm - 0.01 in Rain Light Rain
6:00 AM 64.4 °F - 60.8 °F 88% 30.11 in 3.0 mi Calm Calm - 0.00 in   Overcast
6:12 AM 64.4 °F - 60.8 °F 88% 30.11 in 2.5 mi Calm Calm - 0.00 in Rain Light Rain
6:52 AM 64.0 °F - 61.0 °F 90% 30.12 in 2.0 mi Calm Calm - 0.01 in Rain Light Rain
7:06 AM 64.4 °F - 62.6 °F 94% 30.13 in 2.5 mi Calm Calm - N/A   Overcast
7:18 AM 64.4 °F - 60.8 °F 88% 30.14 in 3.0 mi Calm Calm - N/A   Overcast
7:52 AM 66.9 °F - 63.0 °F 87% 30.13 in 5.0 mi Calm Calm - N/A   Mostly Cloudy
8:40 AM 69.8 °F - 64.4 °F 83% 30.12 in 8.0 mi Calm Calm - N/A   Mostly Cloudy
8:52 AM 71.1 °F - 64.9 °F 81% 30.12 in 8.0 mi Calm Calm - N/A   Mostly Cloudy
9:15 AM 71.6 °F - 64.4 °F 78% 30.11 in 8.0 mi Calm Calm - N/A   Overcast
9:52 AM 73.0 °F - 66.0 °F 79% 30.10 in 9.0 mi Calm Calm - N/A   Mostly Cloudy
10:42 AM 73.4 °F - 66.2 °F 78% 30.10 in 10.0 mi Calm Calm - N/A   Overcast
10:52 AM 75.0 °F - 66.9 °F 76% 30.09 in 10.0 mi Calm Calm - N/A   Overcast
11:52 AM 75.9 °F - 66.0 °F 71% 30.08 in 10.0 mi SSW 4.6 mph - N/A   Overcast
12:33 PM 78.8 °F - 66.2 °F 65% 30.07 in 10.0 mi Calm Calm - N/A   Overcast
12:52 PM 78.1 °F - 66.9 °F 68% 30.06 in 10.0 mi South 3.5 mph - N/A   Overcast
1:14 PM 78.8 °F - 68.0 °F 69% 30.06 in 9.0 mi Variable 4.6 mph - N/A   Mostly Cloudy
1:52 PM 81.0 °F 83.8 °F 68.0 °F 65% 30.04 in 10.0 mi South 3.5 mph - N/A   Mostly Cloudy
3:25 PM 73.4 °F - 69.8 °F 88% 30.03 in 3.0 mi SSW 4.6 mph - 0.21 in Rain , Thunderstorm Light Thunderstorms and Rain
3:30 PM 73.4 °F - 69.8 °F 88% 30.04 in 2.5 mi SW 3.5 mph - 0.21 in Thunderstorm Overcast
3:41 PM 69.8 °F - 64.4 °F 83% 30.03 in 6.0 mi South 5.8 mph 17.3 mph 0.21 in Rain , Thunderstorm Light Thunderstorms and Rain
3:52 PM 69.1 °F - 64.0 °F 84% 30.04 in 2.5 mi West 3.5 mph - 0.23 in Rain , Thunderstorm Light Thunderstorms and Rain
4:10 PM 68.0 °F - 64.4 °F 88% 30.03 in 1.0 mi South 6.9 mph - 0.23 in Rain , Thunderstorm Light Thunderstorms and Rain
4:22 PM 69.8 °F - 64.4 °F 83% 30.03 in 2.0 mi Variable 5.8 mph - 0.31 in Rain , Thunderstorm Light Thunderstorms and Rain
4:30 PM 69.8 °F - 64.4 °F 83% 30.03 in 9.0 mi Calm Calm - 0.31 in Rain , Thunderstorm Light Thunderstorms and Rain
4:42 PM 69.8 °F - 64.4 °F 83% 30.02 in 1.8 mi NE 5.8 mph - 0.39 in Rain , Thunderstorm Heavy Thunderstorms and Rain
4:52 PM 69.1 °F - 66.0 °F 90% 30.02 in 2.5 mi Calm Calm - 0.43 in Rain , Thunderstorm Light Thunderstorms and Rain
5:11 PM 69.8 °F - 66.2 °F 88% 30.04 in 5.0 mi WNW 8.1 mph - 0.08 in Rain , Thunderstorm Light Thunderstorms and Rain
5:15 PM 69.8 °F - 64.4 °F 83% 30.05 in 1.8 mi SW 6.9 mph 17.3 mph 0.13 in Rain , Thunderstorm Heavy Thunderstorms and Rain
5:26 PM 69.8 °F - 64.4 °F 83% 30.03 in 3.0 mi Variable 4.6 mph - 0.15 in Rain , Thunderstorm Light Thunderstorms and Rain
5:44 PM 69.8 °F - 64.4 °F 83% 30.02 in 3.0 mi South 6.9 mph - 0.19 in Rain Light Rain
5:52 PM 69.1 °F - 64.0 °F 84% 30.01 in 3.0 mi SSE 6.9 mph - 0.21 in Rain , Thunderstorm Rain
6:10 PM 71.6 °F - 64.4 °F 78% 30.02 in 10.0 mi Calm Calm - 0.01 in Rain Light Rain
6:52 PM 70.0 °F - 64.9 °F 84% 30.01 in 5.0 mi Calm Calm - 0.03 in Rain Light Rain
7:52 PM 69.1 °F - 66.0 °F 90% 30.01 in 9.0 mi Calm Calm - 0.00 in Rain Light Rain
8:52 PM 69.1 °F - 64.9 °F 87% 30.02 in 10.0 mi WNW 6.9 mph - 0.00 in   Overcast
9:04 PM 68.0 °F - 64.4 °F 88% 30.04 in 1.8 mi SW 4.6 mph - 0.10 in Rain Heavy Rain
9:18 PM 69.8 °F - 64.4 °F 83% 30.03 in 3.0 mi Calm Calm - 0.15 in Rain Light Rain
9:52 PM 68.0 °F - 64.9 °F 90% 30.03 in 7.0 mi Calm Calm - 0.16 in   Overcast
10:52 PM 66.9 °F - 64.9 °F 93% 30.02 in 5.0 mi Calm Calm - 0.00 in Rain Light Rain
11:45 PM 66.2 °F - 64.4 °F 94% 30.02 in 1.5 mi Calm Calm - 0.02 in   Partly Cloudy
11:47 PM 66.2 °F - 64.4 °F 94% 30.02 in 0.8 mi Calm Calm - 0.02 in   Partly Cloudy
11:52 PM 66.9 °F - 64.0 °F 90% 30.00 in 0.5 mi Calm Calm - 0.02 in Fog Fog